Regional Weather Roundup
Issued by NWS Boston, MA

Current Version | Previous Version | Text Only | Print | Product List | Glossary On
Versions: 1 2 3 4 5 6 7 8 9 10 11 12 13 14 15 16 17 18 19 20 21 22 23 24 25 26 27 28 29 30 31 32 33 34 35 36 37 38 39 40 41 42 43 44 45 46 47 48 49 50
720
ASUS41 KBOX 211610
RWRBOX

REGIONAL WEATHER ROUNDUP
NATIONAL WEATHER SERVICE TAUNTON MA
1100 AM EST TUE NOV 21 2017

NOTE:  "FAIR" INDICATES FEW OR NO CLOUDS BELOW 12,000 FEET WITH NO
SIGNIFICANT WEATHER AND/OR OBSTRUCTIONS TO VISIBILITY.

MAZALL-211700-
EASTERN MASSACHUSETTS

CITY           SKY/WX    TMP DP  RH WIND       PRES   REMARKS
BOSTON         MOSUNNY   55  28  35 SW26G33   30.07F
BEVERLY        PTSUNNY   54  28  36 SW13G28   30.06F
LAWRENCE       CLOUDY    54  27  35 SW13      30.06F
BEDFORD        SUNNY     55  27  34 SW24G33   30.05F
BLUE HILL        N/A     53  26  35 SW29G38   30.05F
NORWOOD        SUNNY     58  29  33 S16G28    30.08F
MARSHFIELD     SUNNY     57  34  41 SW13G26   30.08F
PLYMOUTH       SUNNY     57  35  43 SW22G36   30.11F
TAUNTON        SUNNY     56  36  47 SW15G28   30.11F
NEW BEDFORD    SUNNY     67  32  27 SW21G32   30.12F
$$

MAZALL-211700-
CAPE COD AND THE ISLANDS

CITY           SKY/WX    TMP DP  RH WIND       PRES   REMARKS
FALMOUTH       MOSUNNY   57  39  51 SW24G32   30.14F
HYANNIS        SUNNY     57  41  55 SW17G28   30.12F
CHATHAM        SUNNY     56  44  64 SW12G26   30.16F
PROVINCETOWN   SUNNY     56  41  57 SW22G30   30.12F
NANTUCKET      MOSUNNY   58  46  64 SW18      30.18F
MARTHAS VNYRD  MOSUNNY   58  40  51 SW20G31   30.16F
$$

MAZALL-211700-
CENTRAL AND WESTERN MASSACHUSETTS

CITY           SKY/WX    TMP DP  RH WIND       PRES   REMARKS
WORCESTER      SUNNY     48  26  42 SW17G29   30.05F
FITCHBURG      MOSUNNY   55  26  32 SW14G26   30.04F
ORANGE         SUNNY     48  26  42 S17G24    30.04F
SPRINGFIELD    MOSUNNY   51  27  39 S17G25    30.04F
WESTFIELD      SUNNY     50  28  42 S15G21    30.05F
NORTH ADAMS    SUNNY     51  22  31 W8        29.97F
PITTSFIELD     SUNNY     48  23  37 S9        29.98F
$$

RIZALL-211700-
RHODE ISLAND

CITY           SKY/WX    TMP DP  RH WIND       PRES   REMARKS
PROVIDENCE     MOSUNNY   56  33  42 SW20G29   30.13F
NEWPORT        SUNNY     56  40  55 SW10G22   30.13F
BLOCK ISLAND   SUNNY     57  38  48 SW22G31   30.15F
SMITHFIELD     SUNNY     54  31  41 SW9G25    30.09F
WESTERLY       SUNNY     57  37  47 SW15G25   30.14F
$$

CTZALL-211700-
CONNECTICUT

CITY           SKY/WX    TMP DP  RH WIND       PRES   REMARKS
BRADLEY INTL   MOSUNNY   54  29  38 S12       30.07F
HARTFORD       SUNNY     53  31  42 S13G25    30.08F
BRIDGEPORT     SUNNY     56  34  43 SW16      30.12F
DANBURY        SUNNY     52  30  43 SW14G21   30.09F
GROTON         SUNNY     56  39  53 SW18G26   30.13F
NEW HAVEN      MOSUNNY   56  36  47 SW15      30.12F
CHESTER        FAIR      55  34  44 SW14G22   30.11F
MERIDEN        SUNNY     53  33  46 S18G24    30.10F
WILLIMANTIC    SUNNY     55  31  39 S15G31    30.10F
OXFORD         SUNNY     50  30  46 SW9G20    30.09F
$$

MEZ002-015-021-024-NHZ003-005-008-011-012-014-VTZ005-008-211700-
NORTHERN NEW ENGLAND

CITY           SKY/WX    TMP DP  RH WIND       PRES   REMARKS
PORTLAND ME    MOSUNNY   42  26  53 SW6       30.04F
BANGOR ME      MOSUNNY   36  24  62 S9        30.03F WCI  29
CONCORD NH     CLOUDY    40  27  59 SE6       30.02F
MANCHESTER NH  CLOUDY    43  26  51 S8        30.02F
NASHUA NH      CLOUDY    47  28  47 CALM      30.03F
PORTSMOUTH NH  PTSUNNY   46  25  44 SW5       30.03F
JAFFREY NH     SUNNY     48  24  39 S16G25    30.01F
KEENE NH       SUNNY     50  25  37 S13       30.00F
BURLINGTON VT  PTSUNNY   46  25  43 S22G39    29.83F
MT. WASHINGTON MOSUNNY   25  14  63 SW53G71     N/A  WCI   4
$$

NYZ052-076-211700-
EASTERN NEW YORK

CITY           SKY/WX    TMP DP  RH WIND       PRES   REMARKS
ALBANY         MOSUNNY   48  23  37 S17G26    29.98F
NEW YORK CITY  PTSUNNY   54  30  40 SW18G24   30.11F
$$

ANZALL-211700-
MARINE OBSERVATIONS

STATION/POSITION TIME  TEMP    WIND        PRES    VSBY  WAVE
                       AIR SEA DIR/SP/G                  HT/PER
                 (UTC) (F)     (DEG/KT/KT) (MB)    (MI)  (FT/S)
BOSTON BUOY      1550   52 50  210/ 19/ 23 1017.4F         3/ 4
BUZZARDS BAY     1500   54     220/ 25/ 27 1021.4F
NANTUCKET SOUND  1550   53 49  230/ 19/ 21 1021.0F         2/ 4
MASS BAY-STELLWA 1504   49 49  210/ 17/ 21 1018.5F         3/ 4
ISLE OF SHOALS   1500   42     210/ 18/ 20 1018.4F
S OF BLOCK IS    NOT AVBL
$$

......................KEY.........................
  SKY/WX - SKY CONDITION/PRESENT WEATHER
  TMP    - TEMPERATURE IN FAHRENHEIT
  DWPT   - DEWPOINT IN FAHRENHEIT
  RH     - RELATIVE HUMIDITY IN PERCENT
  WIND   - DIRECTION AND SPEED IN MPH
  PRES   - MEAN SEA LEVEL PRESSURE IN INCHES OF HG
  WCI    - WIND CHILL INDEX
  VSB    - VISIBILITY IN MILES
  HX     - HEAT INDEX
  TC     - TEMPERATURE IN CELSIUS
  VRB    - VARIABLE WIND DIRECTION
  N/A    - NOT AVAILABLE




USA.gov is the U.S. government's official web portal to all federal, state and local government web resources and services.